User: anonymous   Login
Location: Unspecified
(0.0000°N, 0.0000°E)
Time: 09:11:06
(UTC+00:00)
Language:

Cosmos 1574 - Orbit

View from above orbital plane
View from above orbital plane
View from above satellite
View from above satellite

Ground track
Ground track

The orbit data is extracted from the following two-line orbital elements,

1 15055U 84062A   18109.97541207 +.00000036 +00000-0 +21891-4 0  9994
2 15055 082.9536 119.0581 0028856 079.4506 310.9915 13.74298889696183
Epoch (UTC): 19 April 2018 23:24:35
Eccentricity: 0.0028856
inclination: 82.9536°
perigee height: 963 km
apogee height: 1005 km
right ascension of ascending node: 119.0581°
argument of perigee: 79.4506°
revolutions per day: 13.74298889
mean anomaly at epoch: 310.9915°
orbit number at epoch: 69618

The dashed part of the orbit path shows where the satellite is in the earth's shadow,  

DLR